Location: Baix
(44.7118°N, 4.7648°E)
Time: 17:38:42
(UTC+00:00)

Vanguard 3 - Pass Details

Date: 05 December 2020
Orbit: 508 x 3262 km, 33.4° (Epoch: 16 January)

Event Time Altitude Azimuth Distance (km) Brightness Sun altitude
Rises 17:59:58 0° 225° (SW) 3,579 11.4 -20.5°
Reaches altitude 10° 18:04:14 10° 199° (SSW) 2,197 9.7 -21.2°
Maximum altitude 18:06:30 13° 171° (S) 1,799 8.9 -21.6°
Enters shadow 18:07:23 13° 157° (SSE) 1,777 8.8 -21.7°
